GFSGL_con_lsi_099.txt.gz
Lid_Strength_Index
1 1 1 1 1 0 1 0 0 0 0 0 0 0 0 0 -0 0 0 0 1 1 0 1 1 0 1 1 1 1 2 3 5 4 3 4 5 6 5 5 5 5 5
1 1 1 1 1 1 1 0 0 0 -0 0 0 0 0 0 0 0 1 0 1 1 1 1 1 1 2 1 1 2 3 3 5 6 4 4 4 4 4 5 5 5 5
1 1 1 1 1 1 1 0 0 0 0 0 0 0 0 0 0 0 0 1 1 1 1 1 1 2 2 2 2 3 3 4 4 5 5 4 4 7 7 8 7 8 7
1 1 1 1 1 1 1 0 0 0 0 0 0 0 0 0 0 0 0 1 1 1 1 1 1 1 2 3 3 4 4 5 5 6 6 9 11 11 10 12 11 9 10
1 1 1 1 1 1 1 1 0 0 0 0 0 0 0 0 0 0 1 1 1 1 1 4 11 11 12 12 8 6 6 6 7 9 12 13 12 13 12 11 12 12 11
2 2 1 1 1 1 1 1 1 1 0 0 1 1 1 5 12 11 7 4 7 9 10 12 12 13 13 14 14 14 14 12 12 12 13 13 14 13 13 13 13 13 14
2 2 1 1 1 1 1 1 1 1 1 5 8 9 11 12 12 12 12 12 13 13 14 14 14 13 13 13 13 13 13 13 15 13 14 14 14 14 13 13 13 13 13
2 2 1 1 1 1 1 4 7 9 11 12 13 13 14 14 14 14 14 14 15 15 15 15 15 14 13 13 13 14 14 14 14 14 14 13 13 13 13 13 13 13 12
2 2 2 1 3 6 9 10 12 13 14 14 14 14 15 16 15 15 15 15 16 16 16 15 15 15 15 14 14 15 15 15 14 14 14 14 14 14 13 13 14 14 14
7 7 7 8 10 12 13 14 14 15 15 15 16 15 16 16 14 14 14 15 15 16 16 16 16 16 16 15 15 15 15 14 14 13 13 13 13 13 14 14 14 16 15
10 11 11 12 13 13 14 15 15 16 17 17 17 17 16 16 15 14 15 15 15 15 15 16 16 16 15 15 15 15 16 14 14 14 14 14 13 13 13 13 13 14 16
12 12 13 13 13 13 14 15 16 16 17 17 17 16 16 16 15 15 15 15 14 15 15 15 15 15 15 15 15 16 16 15 14 14 14 14 14 14 14 15 14 14 14
13 13 13 13 13 13 14 14 15 15 15 16 16 16 16 15 15 15 15 15 15 15 15 16 15 15 14 15 16 16 15 15 15 16 16 16 15 15 15 15 14 14 14
13 13 14 14 14 15 14 14 14 14 15 15 15 16 16 17 17 16 15 15 15 15 14 14 15 15 15 15 14 14 14 15 16 16 16 16 16 16 16 16 16 15 15
13 14 15 15 16 17 16 16 17 16 15 16 16 16 18 19 18 17 17 17 16 16 15 15 16 16 16 16 16 16 16 16 17 18 18 18 18 18 17 16 15 15 15
13 14 15 15 16 17 18 18 18 18 18 18 18 18 19 19 18 17 17 18 18 17 16 17 18 18 19 18 18 18 18 18 18 19 18 18 18 18 17 15 15 15 15
14 14 15 15 15 17 17 19 21 20 19 19 19 19 19 20 19 18 18 18 18 17 18 18 19 19 19 19 19 19 20 19 19 19 19 17 17 17 16 16 15 15 15
15 15 14 15 15 15 16 16 17 19 20 21 20 19 19 19 20 20 19 18 19 19 19 20 20 20 20 20 20 21 21 20 19 18 18 17 16 16 16 15 15 14 15
16 16 16 16 17 17 17 17 17 18 19 19 18 19 19 19 19 19 19 20 21 21 20 20 20 20 21 21 21 20 19 18 18 17 16 16 15 15 15 14 14 14 14
17 17 17 17 18 18 18 19 19 19 19 20 21 21 19 19 20 20 20 21 21 21 21 21 21 21 21 20 19 19 18 17 17 16 16 15 14 14 14 14 13 13 12
18 19 18 19 19 19 19 19 19 19 20 21 23 23 23 20 21 21 21 21 21 21 22 21 21 21 20 19 18 18 17 17 16 16 15 15 14 14 13 13 12 12 11
18 19 19 19 19 20 20 19 20 20 20 21 21 22 22 21 21 21 21 21 22 21 21 21 21 19 18 18 18 17 17 16 16 15 15 15 14 13 13 13 12 12 11
20 20 20 20 20 20 19 20 20 20 21 21 21 21 21 22 21 21 22 22 22 21 20 20 19 19 17 17 17 16 16 16 15 15 15 15 14 13 13 13 12 12 12
20 20 20 20 19 20 20 22 22 23 21 21 21 21 22 21 21 22 22 22 21 20 19 19 19 18 17 17 16 16 15 15 15 15 15 15 15 14 13 13 13 12 12
19 20 20 20 21 21 21 21 21 21 21 22 22 21 21 21 21 21 21 20 20 20 20 18 17 17 16 17 16 15 15 15 16 16 15 15 15 15 14 13 12 12 12
20 20 20 21 21 21 21 21 22 22 22 22 21 21 21 21 21 21 20 20 21 21 19 17 17 16 16 15 15 14 16 16 15 15 14 14 14 14 13 13 13 13 13

GFSGL_con_lsi_102.txt.gz
Lid_Strength_Index
2 2 2 1 1 1 2 1 1 1 1 1 1 1 1 1 1 1 1 1 1 1 1 1 1 1 1 1 1 1 2 3 4 3 2 2 3 4 4 4 4 3 3
2 2 2 1 1 1 1 1 1 1 1 1 1 1 1 1 1 1 1 1 1 2 2 2 2 1 2 1 1 2 2 2 3 4 3 3 4 4 4 4 4 3 4
2 2 2 2 2 2 1 1 1 1 1 1 1 1 1 1 1 1 1 1 1 1 1 2 2 2 2 3 3 2 2 3 3 4 4 4 5 7 7 7 7 6 6
2 2 2 2 2 1 1 1 1 1 1 1 1 1 1 1 1 1 1 1 1 1 2 8 10 11 11 10 7 8 6 6 4 5 5 6 10 10 9 10 10 9 9
2 2 2 2 1 1 1 1 1 1 1 1 1 1 1 1 4 5 2 2 5 8 11 11 12 13 13 14 12 13 12 10 10 10 12 12 12 12 12 11 12 13 12
2 2 2 2 2 2 2 1 1 1 1 1 2 5 9 10 12 11 8 10 10 11 13 13 13 13 14 14 14 14 14 14 14 13 13 14 14 14 14 14 14 14 14
2 2 2 2 2 2 2 2 2 3 7 10 11 11 13 13 13 13 12 13 14 14 14 15 15 14 14 14 14 14 14 14 15 14 15 15 15 15 14 14 14 14 14
3 2 2 2 2 2 3 9 10 11 12 13 13 13 14 14 14 14 14 15 15 16 16 16 16 16 15 14 13 15 15 15 15 14 15 15 14 14 14 14 14 14 13
3 2 2 2 7 10 12 13 13 14 14 14 14 15 15 15 15 14 15 16 17 17 16 16 16 16 15 14 15 15 15 15 14 14 14 14 14 14 14 15 16 17 17
8 9 10 10 12 13 14 14 14 14 15 16 16 16 15 15 14 14 15 16 17 17 17 16 16 16 15 15 16 17 18 17 15 15 15 14 13 13 14 15 15 17 17
12 13 13 14 15 14 14 15 16 17 17 18 17 16 16 16 16 15 15 16 15 16 16 17 16 15 15 15 16 17 17 16 15 16 16 16 15 15 15 15 16 17 18
13 14 15 15 15 15 16 16 17 17 17 17 17 18 17 17 16 15 15 15 15 17 17 17 17 15 15 16 16 15 15 15 17 17 17 17 17 17 17 16 16 16 16
14 14 15 15 15 14 16 16 16 16 17 17 17 17 17 16 16 15 15 15 15 17 17 16 15 15 15 15 15 15 17 18 18 19 20 20 19 18 17 17 17 17 17
16 15 15 16 16 16 15 15 15 16 16 17 18 19 19 19 19 18 18 18 17 17 16 17 16 16 16 17 17 17 18 18 20 21 21 20 19 19 20 19 20 20 20
16 16 18 18 18 19 18 18 18 18 17 19 19 20 20 21 20 19 19 20 19 18 18 18 18 19 20 20 19 20 20 20 21 21 21 21 21 21 21 20 20 20 20
16 17 18 18 19 19 20 20 18 19 19 19 19 20 20 20 19 19 19 19 18 18 19 21 22 22 22 21 22 22 21 22 22 22 23 23 23 23 22 20 18 18 18
16 17 18 18 19 20 21 22 23 21 20 20 20 20 20 20 20 19 19 19 18 19 21 22 23 23 23 22 23 23 23 23 21 23 23 23 22 21 20 19 18 17 17
16 16 17 17 18 19 20 20 20 22 23 23 21 21 20 20 20 19 19 19 22 21 21 23 24 24 23 23 23 23 23 23 23 23 23 22 21 20 19 18 17 18 17
17 17 17 17 17 18 18 19 20 21 22 22 21 21 20 19 19 20 20 22 23 23 22 23 23 23 23 23 25 25 26 25 25 24 21 21 20 18 18 18 17 16 15
18 18 18 18 19 19 20 20 21 22 24 24 24 23 21 21 22 23 23 23 24 24 24 24 23 23 24 24 26 27 25 24 22 21 21 20 19 18 18 17 16 15 14
18 18 19 19 19 20 20 21 21 22 23 24 24 24 23 22 23 23 24 24 24 24 25 24 25 25 25 25 23 23 23 23 21 20 19 19 19 19 17 16 15 15 14
19 19 20 21 20 21 21 20 20 21 21 22 23 23 23 23 23 24 24 25 25 25 24 25 25 24 23 23 22 24 22 22 20 19 19 19 19 17 16 16 16 15 14
20 21 21 21 21 21 21 21 21 21 22 22 22 23 23 24 24 24 24 26 25 25 25 25 26 24 22 23 22 20 20 20 18 18 19 19 18 18 18 16 16 16 15
20 21 21 21 22 23 23 23 23 23 23 23 23 23 24 25 25 25 26 27 26 26 26 26 23 22 22 23 21 20 18 17 18 19 19 19 19 18 17 17 16 15 14
20 21 22 22 22 22 23 23 23 23 23 23 24 24 24 25 24 26 25 26 26 27 25 23 22 22 21 22 20 18 17 19 19 19 18 18 18 18 17 16 16 15 16
21 21 21 22 22 22 23 23 23 24 24 24 24 25 25 24 24 26 25 25 27 25 22 22 21 22 21 19 18 16 19 18 17 17 17 17 17 17 16 16 17 16 15

GFSGL_con_lsi_105.txt.gz
Lid_Strength_Index
2 2 3 3 2 2 2 2 2 1 2 2 2 2 2 2 1 2 2 1 1 1 2 2 2 1 2 2 2 1 2 2 4 3 2 2 4 4 3 3 3 3 3
2 2 2 2 2 2 2 2 2 2 1 1 1 1 1 1 1 1 1 1 2 2 2 2 2 1 2 1 2 2 2 2 3 4 2 2 4 4 4 4 3 3 3
2 2 2 2 2 3 2 2 2 1 1 1 1 2 2 1 1 1 1 1 1 1 1 2 4 5 4 6 5 5 4 4 4 5 6 5 6 9 8 7 8 7 6
2 2 2 3 2 2 2 2 2 1 1 2 1 1 1 1 2 1 1 1 1 5 8 9 10 11 11 10 10 10 10 8 8 9 9 11 11 10 11 12 11 9 9
2 2 2 2 2 2 2 2 1 1 1 1 1 1 1 2 5 4 2 4 8 10 11 12 12 12 13 13 12 13 12 12 13 12 13 13 14 13 14 13 13 13 12
3 3 2 2 2 2 2 2 2 2 2 4 8 8 10 11 12 10 9 10 11 12 13 13 13 13 14 14 14 15 14 15 14 14 15 15 15 15 14 14 14 15 15
3 2 2 2 2 2 2 2 2 7 9 11 11 12 13 13 13 12 13 13 13 14 14 14 15 14 14 14 15 16 14 14 15 15 16 16 16 16 16 16 16 16 16
3 3 2 2 2 2 5 9 11 11 12 13 14 14 15 14 14 14 14 14 15 15 15 16 16 16 15 15 16 15 16 16 15 15 16 16 16 15 16 16 16 16 16
4 3 2 2 8 10 12 13 13 14 14 15 15 15 15 15 15 15 15 16 17 17 16 16 16 16 16 15 16 17 17 17 15 14 14 14 14 14 15 17 19 20 20
11 11 10 10 12 13 14 14 14 15 16 16 16 15 15 15 15 15 15 16 17 17 17 17 16 16 16 16 17 18 19 18 18 18 17 16 16 16 16 17 18 20 20
12 12 13 14 14 14 15 15 16 17 17 17 17 17 17 16 15 14 14 15 16 17 18 17 16 16 16 16 16 18 19 19 18 19 19 19 18 19 18 18 18 19 20
13 13 14 15 15 15 16 17 17 17 17 18 18 18 17 16 15 15 15 16 16 17 18 17 17 16 16 17 18 18 19 20 21 21 21 21 21 20 20 19 19 19 19
13 14 15 15 15 16 16 17 17 17 17 18 18 19 19 18 18 17 16 16 16 18 18 17 17 18 18 19 19 20 21 22 23 23 23 22 21 21 20 20 20 20 20
15 16 16 16 17 17 16 16 17 18 19 19 20 21 21 20 20 19 19 19 17 19 19 20 20 20 21 21 21 21 22 22 23 23 23 23 22 22 22 21 22 22 23
17 18 19 19 19 20 19 20 20 19 19 20 20 20 21 22 20 19 19 19 19 20 21 21 22 23 23 23 23 23 22 22 23 23 24 24 23 23 23 22 23 23 24
17 19 19 20 21 20 21 20 19 19 19 19 19 20 20 19 19 19 18 18 19 20 23 24 26 26 25 24 24 24 23 24 23 23 24 24 24 25 25 24 23 23 22
18 18 19 19 20 21 22 22 23 21 20 20 20 19 19 19 19 19 19 20 20 21 24 25 26 28 26 24 24 24 25 24 23 24 25 25 25 25 24 23 22 21 20
17 19 19 20 21 22 22 23 23 23 24 23 20 20 20 19 19 20 20 21 23 22 23 25 26 26 24 24 25 25 25 26 26 26 27 28 28 24 24 22 21 21 20
17 18 18 18 19 20 20 21 22 22 23 23 22 21 21 20 21 21 21 24 24 24 24 24 25 25 25 25 30 30 34 31 32 32 29 27 29 24 23 21 20 20 19
18 18 19 20 20 20 21 23 24 24 24 25 25 24 23 24 25 25 25 27 26 26 25 25 25 26 28 28 31 32 31 33 29 27 31 31 30 23 22 21 20 19 18
19 19 19 19 20 21 22 23 24 25 25 25 25 23 23 24 25 26 26 28 28 27 30 27 28 29 28 29 28 30 31 34 28 27 27 23 26 23 21 20 19 19 17
19 20 20 20 20 21 21 22 24 24 24 24 24 24 25 26 26 27 28 31 33 30 29 30 30 28 27 29 29 32 30 32 30 26 24 24 22 22 21 21 20 18 18
20 21 21 22 22 22 23 23 24 24 25 25 25 26 26 28 29 29 30 33 29 30 31 31 33 29 29 31 29 27 28 24 22 23 23 23 23 22 22 20 19 19 18
21 22 23 24 24 24 24 25 25 25 25 27 29 29 29 29 33 32 34 34 32 33 34 32 27 26 27 28 28 25 21 22 23 23 24 21 21 20 19 19 19 18 17
22 23 23 23 24 24 24 25 26 27 27 28 29 30 28 29 30 34 30 32 33 35 31 27 29 27 27 25 24 21 23 22 21 20 20 19 20 19 19 19 18 17 18
22 22 22 23 24 25 26 27 28 28 28 29 32 34 30 32 32 32 30 33 33 32 31 30 27 25 24 24 23 20 21 21 22 22 21 19 19 18 18 18 18 18 17

GFSGL_con_lsi_108.txt.gz
Lid_Strength_Index
2 2 3 3 2 2 2 2 3 2 3 3 3 3 3 2 2 3 3 3 3 3 3 3 2 2 1 1 1 1 2 2 4 3 2 1 4 4 4 3 3 2 3
2 2 3 3 2 2 2 2 2 3 2 2 3 3 3 2 2 2 2 2 2 2 2 2 2 1 2 1 2 3 2 2 3 4 2 3 4 6 7 7 8 7 7
2 2 2 3 3 3 2 2 2 2 2 2 2 3 3 2 2 2 2 2 2 1 1 2 3 5 3 6 6 7 7 6 7 7 7 9 9 11 12 9 9 10 8
2 2 3 3 3 3 2 3 2 2 2 2 2 2 2 2 2 2 2 2 2 5 8 10 11 11 11 9 11 11 10 9 10 10 11 11 12 12 12 14 13 13 12
2 2 2 2 3 3 3 3 2 2 2 1 1 1 1 2 3 2 2 3 8 11 12 12 12 12 13 13 13 13 12 12 12 13 14 15 15 16 16 14 14 15 14
3 3 2 2 2 3 3 3 3 3 2 4 5 8 10 10 11 10 8 10 11 12 13 14 13 13 13 14 15 15 15 14 15 15 16 16 17 16 16 17 17 17 17
3 2 2 2 2 3 2 2 3 7 9 11 11 12 13 13 12 12 12 13 14 14 14 14 14 14 15 15 15 15 15 15 16 16 17 17 17 17 17 18 18 19 20
3 3 2 2 2 2 5 9 10 11 12 13 14 14 14 14 14 14 14 15 15 15 15 16 15 15 15 15 16 16 16 16 16 16 16 16 17 17 18 19 20 20 20
3 3 3 3 6 9 11 12 13 13 14 14 15 15 15 15 14 14 15 16 17 16 16 16 17 17 17 15 17 18 18 18 15 15 16 17 17 17 18 21 22 23 23
9 8 7 9 10 12 13 14 14 14 15 15 15 15 15 15 15 15 15 16 17 17 17 17 16 17 16 16 18 19 20 20 19 20 21 20 20 20 20 21 22 24 23
11 11 11 12 13 14 15 15 16 16 16 16 16 16 15 15 15 15 15 17 17 17 17 18 17 17 17 18 18 20 21 21 21 21 22 22 22 22 22 21 21 22 24
12 13 14 14 14 15 16 16 16 17 17 18 18 18 17 16 16 15 16 16 17 17 18 17 18 18 18 19 20 20 21 22 22 23 24 24 24 23 22 21 20 20 20
14 15 15 15 16 16 17 17 18 17 18 18 19 20 20 19 17 16 17 17 18 19 18 18 19 19 20 21 21 22 22 24 24 26 25 24 23 22 21 21 21 21 21
15 15 15 16 16 17 17 17 17 19 19 20 20 21 21 20 20 19 19 19 19 20 20 21 21 21 22 22 23 23 23 23 24 24 25 24 23 23 24 23 23 23 24
17 17 18 19 19 20 20 20 20 20 20 21 21 21 21 21 20 19 20 21 21 21 22 22 23 24 24 24 24 24 23 23 24 24 25 25 25 24 24 24 24 24 26
17 19 19 20 20 21 21 21 18 19 18 19 19 20 19 18 18 19 19 20 20 21 24 25 26 26 26 25 25 25 24 25 25 24 26 26 26 26 26 25 25 25 26
18 19 19 20 21 22 21 21 22 20 18 18 18 19 19 19 19 19 20 20 21 22 26 27 28 27 26 25 25 25 26 26 25 25 27 27 27 26 27 26 26 25 24
19 19 20 20 21 21 21 22 22 23 22 21 19 19 19 20 20 20 20 22 24 24 25 26 26 26 25 26 26 27 27 28 29 27 29 31 32 28 28 26 24 24 22
19 20 20 20 21 21 22 22 21 22 23 23 23 22 21 21 21 21 22 25 26 25 25 26 26 26 27 28 34 35 37 35 35 37 33 32 35 29 27 25 23 23 22
19 19 19 20 21 22 22 22 23 23 23 24 25 25 25 25 27 28 27 27 26 26 26 27 27 28 31 32 36 38 35 36 33 31 35 36 33 29 25 24 24 24 22
19 19 20 20 22 22 23 23 23 23 24 24 25 25 25 27 27 27 28 29 29 29 32 29 30 30 30 33 30 34 35 39 33 31 30 28 32 28 24 24 24 22 20
20 20 20 21 22 23 23 23 23 24 24 25 26 26 26 27 28 29 29 32 36 32 31 31 30 29 30 30 31 37 35 36 33 29 29 28 26 25 24 24 23 21 21
20 21 21 22 22 22 23 24 25 25 26 26 26 27 27 29 30 30 32 37 32 35 34 33 34 31 32 34 34 31 30 28 26 27 28 28 24 23 24 23 21 21 21
21 22 22 23 23 24 25 25 26 26 27 28 29 29 29 31 33 33 36 38 37 38 38 35 31 31 31 34 33 30 24 25 24 27 28 27 23 23 22 21 21 21 20
22 22 23 23 24 25 25 26 27 28 29 30 29 29 29 30 31 34 36 37 36 37 34 35 35 32 32 31 28 26 24 24 27 26 26 26 25 24 22 21 20 19 19
22 23 23 24 25 26 26 27 28 29 29 30 30 32 33 32 32 36 37 36 36 35 35 34 32 31 29 27 25 22 24 26 27 26 27 24 23 22 20 20 20 19 18

GFSGL_con_lsi_114.txt.gz
Lid_Strength_Index
2 2 2 2 2 2 2 2 2 1 1 1 2 2 2 2 2 3 3 3 3 3 3 3 3 3 3 3 3 3 3 3 5 3 3 6 8 8 9 8 9 9 10
3 2 2 2 2 2 2 2 2 2 2 2 2 2 2 2 2 3 3 3 3 3 3 3 4 3 3 3 3 4 3 3 3 4 6 9 11 10 10 11 11 11 9
3 2 2 2 2 2 2 2 2 3 2 2 3 3 3 3 3 3 3 3 3 3 3 3 3 4 4 5 6 6 7 7 7 6 11 11 12 13 13 12 13 14 12
3 2 2 2 2 2 2 2 2 2 2 2 2 2 3 3 3 3 3 3 5 8 9 9 10 9 8 9 10 10 9 10 10 10 13 14 14 14 14 16 16 15 15
3 3 2 2 2 2 3 3 3 2 2 2 2 2 3 3 4 4 4 8 11 12 13 13 13 12 12 12 12 11 11 12 13 14 15 15 16 16 18 18 18 17 16
4 3 2 2 2 3 3 3 3 3 2 3 4 5 6 7 10 9 8 11 12 13 14 14 13 13 13 13 14 14 14 14 16 16 16 19 19 19 19 20 20 21 21
4 3 3 2 3 3 3 3 3 6 7 8 9 9 10 10 11 11 11 12 13 14 14 14 14 14 14 15 15 15 15 16 17 17 19 20 21 21 20 22 22 22 22
4 3 2 3 3 3 4 7 9 10 11 11 12 12 13 13 12 12 13 13 14 14 14 14 15 16 15 16 17 18 18 18 18 18 19 20 20 21 21 22 23 23 21
4 4 3 3 4 6 8 10 11 12 13 14 14 14 14 14 13 14 14 15 16 16 15 15 15 16 15 15 18 19 19 19 18 18 19 19 19 20 21 23 24 25 26
4 4 4 5 6 8 11 12 13 13 14 14 15 14 14 14 14 14 15 15 16 17 17 17 16 17 17 17 19 20 21 21 22 22 22 22 22 22 22 23 24 26 26
9 8 8 8 10 11 13 13 14 15 15 15 16 15 15 15 15 15 15 16 17 18 19 19 19 18 18 19 19 20 22 22 23 23 23 24 24 24 24 23 23 24 26
12 13 13 13 13 13 14 15 15 15 16 16 17 16 16 16 15 15 16 17 17 19 20 20 19 19 19 20 21 21 22 23 24 24 25 26 25 25 25 24 23 23 22
15 15 15 15 15 15 16 17 17 17 18 18 17 18 18 17 17 16 17 17 18 20 19 19 19 20 21 22 22 22 24 25 25 26 27 27 26 25 24 24 23 22 22
16 17 17 17 17 17 17 17 17 17 18 19 20 20 20 20 19 19 19 19 19 21 22 23 23 23 24 24 24 24 25 25 26 27 27 26 25 25 25 25 25 24 25
18 18 19 19 19 19 19 19 19 18 18 19 19 20 20 21 21 20 21 22 22 22 23 23 25 25 25 26 25 25 25 26 27 27 27 27 27 26 26 25 25 25 27
17 18 19 19 19 19 19 19 17 17 17 17 18 18 19 19 18 18 19 19 20 21 24 26 26 26 26 26 27 27 26 27 27 27 28 27 28 27 27 26 26 27 28
18 18 19 19 19 20 19 19 19 17 17 17 17 17 17 18 18 17 18 20 20 23 26 26 27 27 27 27 27 27 28 27 26 27 28 29 29 28 28 28 27 27 28
18 18 19 19 19 19 19 19 20 20 21 20 17 18 17 17 19 19 20 21 24 24 25 26 27 26 26 27 27 27 28 29 29 28 30 30 32 29 29 28 28 29 29
20 20 20 20 19 19 19 19 20 20 21 21 21 21 20 19 20 21 21 24 26 26 26 27 27 28 28 29 30 31 31 31 32 32 32 31 33 30 30 29 29 29 29
19 19 20 20 21 21 22 22 23 23 23 24 24 25 25 25 27 27 26 26 26 26 26 27 28 28 29 30 32 33 32 32 31 30 32 33 33 31 30 30 29 28 26
20 20 21 21 21 22 22 23 23 24 25 25 26 26 25 26 27 27 28 28 28 28 28 28 29 29 29 29 29 32 32 35 32 31 31 30 34 31 29 28 27 26 24
21 21 21 22 22 23 23 23 24 25 26 27 27 27 26 27 28 28 29 30 30 28 28 28 28 28 28 29 30 34 33 34 33 31 31 31 30 29 29 28 27 25 24
21 22 23 23 23 24 24 24 25 26 26 27 27 28 28 29 29 30 31 31 30 30 29 30 30 30 31 33 32 30 30 29 29 31 32 32 30 28 28 27 26 25 24
21 22 23 24 24 24 25 26 26 27 27 28 29 29 29 30 31 32 33 33 33 33 33 33 30 30 30 34 33 31 28 30 29 30 33 32 29 27 27 26 24 24 24
23 23 24 24 25 25 26 26 27 28 28 29 30 30 31 31 32 34 34 34 33 34 34 35 34 33 34 34 32 30 32 32 32 32 30 30 29 28 27 26 25 23 23
23 24 25 25 26 26 27 28 29 29 30 30 30 31 31 31 32 36 37 35 35 35 35 36 34 35 34 31 30 29 32 32 32 32 31 27 28 27 26 26 25 23 22

GFSGL_con_lsi_117.txt.gz
Lid_Strength_Index
3 2 1 1 1 1 1 1 1 1 0 1 1 1 1 2 2 3 3 3 4 4 4 4 4 3 4 4 3 3 4 4 5 3 4 8 9 10 10 10 9 10 10
3 2 2 1 1 1 1 1 1 1 1 1 1 1 1 2 2 3 4 4 4 4 4 4 4 3 3 3 3 4 3 3 4 4 7 11 12 12 11 13 12 11 12
3 2 2 2 2 2 1 1 1 1 2 2 2 2 2 2 2 2 3 4 4 4 4 4 3 3 4 3 3 3 3 5 5 5 12 12 14 13 14 13 14 13 13
3 2 2 2 2 2 1 1 1 1 2 2 2 2 3 2 3 3 3 3 3 4 4 4 4 4 4 4 6 7 8 9 9 11 13 14 14 14 15 17 17 15 15
4 2 2 2 1 1 2 2 2 2 2 2 2 2 2 3 3 3 5 8 11 12 12 13 12 12 13 12 10 10 11 12 13 13 15 16 17 18 19 18 18 17 17
3 2 2 2 2 2 3 2 2 2 2 3 3 4 5 6 10 11 10 11 12 14 15 15 15 14 15 15 16 16 14 13 15 16 18 19 20 19 19 19 20 19 19
4 2 2 2 2 2 2 2 3 5 6 7 8 8 10 10 11 12 12 13 14 15 16 16 16 16 16 16 16 16 16 17 17 17 19 20 21 20 19 20 20 20 19
4 3 2 2 2 2 3 6 7 8 9 10 12 12 12 12 12 13 14 14 15 15 15 15 16 16 16 17 18 19 19 19 18 19 19 20 20 20 19 21 20 20 18
4 4 3 2 2 4 7 9 10 11 13 13 13 13 14 14 13 13 14 15 16 16 16 15 16 16 16 16 18 19 20 20 18 18 19 19 20 20 20 20 21 21 22
4 4 3 3 4 6 10 11 12 13 14 15 15 14 15 15 14 14 14 15 16 17 17 16 16 17 17 18 19 20 22 22 22 22 22 21 21 21 21 22 22 24 24
9 5 5 6 8 10 11 13 13 14 15 16 16 16 15 15 14 14 14 16 17 18 18 18 18 17 18 18 19 20 21 21 22 22 22 22 22 22 22 22 22 23 24
12 11 11 12 12 13 14 14 14 15 16 16 16 16 16 15 15 16 16 17 18 19 20 20 19 19 19 20 20 21 21 22 22 22 23 24 24 23 22 22 22 22 21
15 15 15 15 15 15 15 15 16 16 16 17 17 18 18 17 17 17 17 18 18 20 20 19 19 20 21 21 22 22 22 23 24 24 24 24 23 23 23 22 22 22 21
17 17 16 16 16 16 16 16 17 17 17 18 19 20 19 19 19 19 19 19 19 20 22 23 23 23 24 24 23 23 23 23 23 23 24 23 23 23 23 22 22 22 21
18 18 17 18 18 18 18 18 18 17 18 19 19 19 20 21 20 20 21 22 22 23 23 23 24 24 24 24 24 24 24 24 24 24 23 23 23 23 23 22 23 22 22
19 19 19 18 18 18 18 19 17 18 17 18 18 19 19 19 19 19 19 20 20 21 22 23 23 23 24 25 25 25 24 25 24 24 24 24 24 24 23 22 22 22 23
18 18 18 18 19 19 18 19 20 17 16 17 18 18 18 17 18 18 19 20 21 21 23 24 24 24 23 23 24 24 25 24 24 24 25 25 24 23 23 23 23 22 22
17 18 18 18 18 18 19 19 20 20 20 19 17 18 17 18 18 19 19 21 23 23 23 24 24 23 23 24 24 24 24 25 25 25 25 25 25 24 23 23 22 23 22
19 19 18 19 19 19 19 19 20 20 20 20 19 19 18 18 19 20 21 22 24 24 24 24 24 24 24 24 24 25 25 25 25 25 25 25 25 25 24 23 22 24 24
19 19 20 20 20 20 21 21 21 22 22 22 22 22 22 22 23 23 22 23 23 24 24 24 24 24 24 25 25 25 25 24 25 25 25 25 24 23 23 23 23 23 22
19 19 19 19 20 20 21 21 22 23 23 24 24 23 23 23 24 24 24 24 24 24 24 24 24 25 24 24 24 24 25 24 24 25 24 24 25 23 23 22 22 22 21
19 20 20 20 20 21 22 22 23 24 24 25 25 25 25 24 24 24 24 24 24 24 24 24 24 24 24 24 24 24 25 25 24 24 23 25 24 22 22 22 22 21 20
20 21 21 21 22 23 23 23 24 25 25 25 25 25 25 25 25 25 25 25 24 25 24 24 24 25 24 24 23 23 23 23 23 24 24 24 23 22 22 22 21 20 19
20 21 22 22 22 23 23 24 25 25 25 25 25 25 26 26 26 26 26 26 26 25 25 25 24 24 25 25 23 23 22 23 23 23 27 25 23 23 22 21 20 20 19
20 21 22 22 23 24 24 24 25 25 25 25 26 26 26 26 27 26 26 26 26 25 26 26 25 26 26 27 26 26 27 27 26 27 24 24 24 24 22 21 20 19 19
20 21 22 22 23 23 24 25 25 25 25 26 26 26 26 26 27 27 27 27 27 27 27 26 26 28 29 26 27 27 27 27 26 27 25 23 23 21 20 20 20 19 18

GFSGL_con_lsi_120.txt.gz
Lid_Strength_Index
2 2 2 1 1 1 1 1 1 1 1 1 1 1 2 2 1 2 3 3 2 2 0 1 1 1 2 2 2 3 3 3 5 4 6 9 10 11 11 10 11 12 13
2 2 2 1 1 1 1 1 0 1 0 0 1 1 1 2 2 3 3 2 1 2 2 2 2 3 3 3 3 3 3 3 4 5 8 12 12 12 13 13 12 12 13
2 2 2 2 1 1 1 1 1 1 1 1 1 1 1 1 2 3 3 3 3 3 3 3 3 4 4 4 4 4 4 4 4 4 11 13 14 13 14 14 14 13 14
2 2 2 2 2 1 1 1 1 1 1 1 1 1 1 1 2 2 3 3 3 4 4 4 4 4 4 4 4 4 4 6 8 12 14 15 15 16 16 16 17 15 15
3 3 2 2 1 1 1 1 1 1 1 1 1 1 2 2 3 3 3 4 5 8 11 12 12 11 11 10 7 9 9 11 13 14 16 17 18 19 19 18 18 17 18
3 3 2 2 2 1 1 1 1 1 2 2 2 3 5 8 12 11 9 11 12 14 15 16 16 15 16 15 15 15 13 13 15 17 18 19 20 19 19 19 19 18 18
5 3 2 2 2 2 1 1 2 3 4 7 8 8 10 11 12 12 13 13 15 15 16 16 17 17 17 18 17 18 18 17 17 17 19 20 20 19 19 19 19 18 18
6 3 2 2 2 2 2 2 5 6 8 10 11 11 12 13 13 14 14 15 16 16 16 17 18 18 18 19 20 20 20 19 19 19 20 20 19 19 19 19 19 18 17
7 4 2 2 2 2 4 6 8 10 11 11 12 13 13 14 13 14 14 16 17 17 17 17 18 18 17 16 19 20 20 19 18 18 18 19 19 19 19 19 20 19 19
12 6 3 3 3 6 8 10 10 12 13 13 14 14 14 14 14 14 14 16 17 17 18 18 17 17 17 17 19 20 21 22 21 21 21 21 21 21 20 19 19 20 20
12 11 4 4 6 9 11 11 13 14 14 16 16 14 14 14 14 14 14 16 16 17 18 18 17 17 17 18 18 20 21 20 21 21 21 21 21 20 20 20 20 19 20
13 14 9 8 10 12 13 13 13 14 15 16 17 17 15 15 15 15 15 16 16 17 18 18 18 18 18 19 20 20 20 20 21 21 21 21 21 21 20 20 19 19 19
15 15 15 13 13 13 14 15 15 15 16 16 17 18 18 17 17 16 17 17 18 19 19 19 19 19 19 20 20 20 21 20 21 21 21 21 21 21 20 20 19 19 18
16 17 16 17 16 16 16 15 16 16 17 18 18 19 19 19 19 18 18 18 18 20 21 21 22 22 22 22 21 20 20 20 21 21 21 21 20 20 21 20 20 19 18
16 17 17 17 18 18 17 17 17 17 17 18 19 19 20 21 20 19 20 22 22 23 23 22 22 22 21 21 21 21 20 20 21 21 21 21 21 21 20 19 19 19 19
18 18 18 17 18 18 19 19 17 18 17 18 18 19 20 19 19 19 20 20 20 20 21 21 21 21 21 21 22 22 22 22 22 21 21 21 20 20 19 19 18 18 19
18 18 18 18 18 18 19 20 20 19 18 18 18 19 19 19 19 19 20 19 20 20 21 22 22 22 22 22 22 23 23 22 21 21 20 20 20 20 19 19 19 19 19
18 18 19 19 19 19 19 19 19 20 21 19 18 18 18 19 19 19 20 20 21 20 20 21 22 21 21 22 22 22 21 21 20 20 20 21 20 19 19 19 19 20 20
17 18 19 19 19 19 19 20 20 20 20 20 20 20 19 20 20 20 19 19 20 21 21 20 20 20 21 21 20 20 20 20 20 20 20 20 20 19 20 19 19 21 20
18 18 18 19 20 20 21 21 20 20 20 20 21 21 21 19 19 19 19 19 19 20 20 20 20 20 20 20 20 21 21 20 20 20 20 20 19 19 19 19 19 19 18
17 17 18 18 19 19 20 20 21 21 21 22 21 20 19 19 20 20 20 20 20 21 20 20 20 21 21 20 20 20 20 20 20 20 20 20 20 19 19 18 18 18 18
17 17 17 18 18 19 20 20 20 21 22 22 22 22 21 21 21 21 21 21 21 21 20 20 20 20 20 20 20 20 20 21 20 20 20 21 20 18 19 18 18 18 18
18 18 19 19 19 20 20 20 21 21 22 22 22 22 22 22 22 22 22 22 21 21 20 20 21 21 21 20 19 19 20 20 20 21 21 20 19 18 19 18 18 18 18
17 18 19 19 20 20 21 22 22 22 22 22 22 22 22 22 22 22 22 21 21 21 21 21 21 22 22 21 20 20 20 20 20 20 24 21 20 19 19 19 19 18 17
17 18 19 19 20 21 21 22 22 22 22 22 23 23 22 22 23 22 22 22 23 23 23 22 22 23 24 24 23 22 25 25 24 25 21 21 21 21 20 20 19 18 16
17 17 18 19 20 20 21 21 21 22 22 22 22 22 22 23 22 22 23 23 23 23 23 23 23 24 24 23 23 25 27 27 24 26 24 21 20 20 19 18 18 17 16

GFSGL_con_lsi_123.txt.gz
Lid_Strength_Index
2 2 2 2 1 1 1 1 1 1 1 1 1 2 3 4 4 3 3 3 3 2 2 1 1 1 1 1 0 1 1 2 4 5 8 10 11 11 11 12 13 14 13
2 2 2 2 2 2 1 1 0 1 0 1 1 1 3 3 4 4 4 4 3 3 2 2 2 2 1 1 1 2 2 2 3 6 11 12 13 13 13 12 13 14 15
2 2 2 2 2 2 2 1 1 1 1 1 1 1 1 3 3 3 3 3 3 3 3 2 1 1 1 1 2 3 2 4 4 6 12 14 15 14 15 15 14 15 15
4 2 2 2 2 2 1 1 1 1 1 1 1 1 1 1 2 2 2 3 3 3 3 3 2 2 2 3 4 4 5 5 6 11 14 16 16 17 16 16 17 16 17
5 5 3 2 2 2 2 1 1 1 1 1 1 1 1 1 1 2 2 2 3 3 5 6 5 6 10 9 5 5 5 9 11 13 16 17 18 18 18 18 18 17 17
5 7 3 2 2 2 2 2 1 1 1 1 1 3 5 7 11 9 5 5 7 11 14 14 13 14 15 15 16 16 12 11 14 15 17 18 20 19 19 19 18 17 18
5 7 5 2 2 2 2 2 2 2 2 5 7 8 9 10 12 12 13 13 14 15 16 16 17 17 16 17 18 18 18 17 17 16 19 20 20 20 18 18 17 17 18
7 8 6 2 2 2 2 2 3 4 7 9 11 11 12 13 13 13 14 15 16 17 17 17 17 18 18 18 20 21 21 20 20 20 20 19 18 18 18 18 17 17 18
9 10 10 3 2 2 3 5 7 9 10 11 12 13 13 13 14 14 14 15 17 18 17 18 18 18 18 17 20 21 21 21 19 18 17 17 17 17 17 17 18 18 19
11 12 11 10 2 3 7 9 10 11 13 13 13 13 13 14 13 14 14 16 17 18 18 19 18 18 18 19 21 21 23 21 20 21 20 19 19 19 18 18 18 19 19
12 12 12 11 4 6 9 11 13 14 14 14 14 14 14 14 14 14 14 15 17 18 19 20 19 19 19 19 19 20 20 20 20 20 20 20 20 20 20 19 19 19 19
12 13 14 10 8 10 11 13 14 15 16 16 16 16 16 15 15 15 15 15 16 18 19 18 18 18 18 18 19 19 19 19 20 20 21 21 20 21 20 19 19 19 19
13 14 15 14 12 12 13 14 15 16 16 17 17 17 17 16 16 15 16 16 17 18 18 18 18 18 18 19 19 19 20 20 20 20 20 20 20 20 19 19 18 18 19
15 15 16 16 16 15 14 15 15 16 17 17 18 19 19 19 18 18 18 18 18 18 19 20 20 20 20 20 20 19 18 18 19 19 20 20 19 19 20 19 19 19 18
16 16 16 17 18 18 18 17 17 17 17 18 18 19 20 20 19 18 19 20 22 22 22 21 21 21 21 21 20 20 19 19 19 19 20 20 20 20 20 19 19 18 18
17 18 17 17 18 19 19 19 17 18 18 18 18 19 19 19 19 19 20 20 20 19 21 21 21 21 20 20 20 21 20 20 20 20 20 20 20 20 19 18 17 18 18
17 18 18 18 19 20 20 20 21 19 18 19 19 19 19 19 19 19 19 18 18 19 21 21 20 20 20 21 21 21 21 20 20 20 20 20 19 19 18 18 18 18 18
18 19 19 19 19 19 20 20 21 21 22 21 19 19 19 18 18 19 19 19 20 20 20 20 20 20 20 21 21 21 21 20 19 20 20 19 19 18 18 18 18 19 19
19 19 19 19 19 19 20 20 21 21 22 22 21 20 19 19 19 19 19 19 20 20 20 20 20 20 20 20 19 19 19 19 19 19 19 19 19 18 19 18 18 19 19
17 19 19 20 19 19 20 21 21 21 22 22 22 22 20 19 20 20 19 19 19 19 19 20 19 19 19 19 19 21 20 20 19 19 19 19 18 18 18 18 18 18 18
16 17 18 19 20 20 20 20 21 21 21 20 19 19 19 19 19 20 20 19 20 19 19 19 19 19 19 19 19 19 19 19 19 19 19 19 19 18 18 18 18 18 17
16 16 17 18 18 19 20 20 22 22 21 21 20 20 19 19 19 20 19 19 18 19 19 19 19 20 19 19 19 19 19 20 20 19 20 20 19 18 18 18 18 18 17
16 17 18 18 18 19 19 20 20 20 20 20 20 20 20 20 20 20 20 20 20 20 19 19 20 20 19 19 18 18 19 19 20 20 20 19 19 18 19 18 18 18 18
16 17 18 18 18 19 20 20 20 20 20 20 20 20 20 20 20 21 21 21 21 21 20 20 20 20 20 20 19 19 20 20 20 20 21 20 19 19 19 19 18 18 18
16 16 17 18 19 20 20 20 20 20 20 21 21 21 21 21 21 21 21 21 21 21 21 21 22 22 23 22 22 23 24 25 24 25 20 20 20 20 20 19 19 18 18
15 16 17 17 18 18 19 19 20 20 21 21 21 20 21 21 21 21 21 22 22 22 22 22 22 23 23 23 23 25 26 25 24 26 24 21 20 19 19 19 19 19 18

GFSGL_con_lsi_126.txt.gz
Lid_Strength_Index
2 2 2 2 1 2 2 1 1 1 1 1 2 2 3 3 2 2 2 2 2 3 2 3 3 2 3 3 3 3 3 4 7 9 9 10 12 13 14 14 14 14 14
2 2 2 2 2 2 2 2 1 1 1 1 2 2 3 3 3 3 3 2 3 3 3 3 3 2 2 2 3 3 4 4 6 9 11 13 13 13 14 15 15 15 15
2 2 2 2 2 2 2 2 1 1 1 1 1 2 3 3 3 3 3 2 2 2 2 3 3 3 3 3 3 4 4 5 6 9 13 14 15 15 15 15 16 16 16
3 3 3 2 2 2 2 2 2 2 1 1 1 1 2 3 3 3 3 3 3 2 2 2 2 3 3 3 3 4 5 5 8 11 14 16 17 16 16 17 18 17 18
5 4 4 4 2 2 2 2 2 2 1 1 1 1 1 2 3 3 3 3 3 3 3 4 5 4 6 5 4 5 5 8 10 13 16 17 18 18 18 17 17 19 18
5 5 5 5 3 2 2 2 2 2 2 2 2 3 4 6 12 8 5 4 3 4 4 9 10 12 13 13 14 14 10 10 13 13 16 16 19 19 18 18 18 19 19
6 6 6 6 5 2 2 2 2 3 3 6 7 8 10 11 12 11 12 11 12 12 12 13 15 15 15 16 17 17 17 16 16 15 16 18 19 19 19 19 18 18 19
7 7 7 8 8 3 2 2 4 6 7 9 10 11 12 13 13 13 14 14 15 16 16 16 16 17 17 17 18 19 20 19 18 18 18 19 19 18 18 18 17 18 18
9 9 9 9 11 8 5 5 7 10 11 12 12 13 14 14 14 14 14 15 16 16 17 17 17 17 16 16 18 20 20 20 18 17 17 18 18 17 18 17 18 18 19
11 11 10 9 11 10 6 7 9 11 13 13 14 13 14 14 14 14 14 15 17 18 18 18 17 18 17 17 19 20 22 21 20 20 20 19 18 18 17 17 17 18 19
11 11 10 10 12 10 8 10 12 13 14 15 15 15 15 14 14 14 14 16 17 18 19 19 19 18 18 18 19 21 22 21 21 21 22 21 19 19 19 19 18 19 20
12 12 11 10 11 9 10 12 13 14 16 16 17 17 16 15 14 15 15 16 16 18 20 18 19 19 19 19 20 20 20 21 21 20 20 20 20 20 20 20 20 20 20
12 13 12 12 12 13 12 13 14 15 16 17 17 18 18 16 16 15 16 16 17 19 18 18 17 17 17 18 18 19 19 19 20 20 21 21 21 20 19 20 19 20 20
13 13 13 14 14 16 16 15 14 16 16 17 18 19 19 18 18 18 18 18 17 18 18 19 19 19 19 19 18 18 18 19 20 21 21 21 20 20 21 20 21 20 21
14 14 15 15 16 17 18 18 16 16 16 17 18 19 21 21 19 18 18 20 21 21 20 20 20 20 20 20 20 19 19 20 20 20 21 21 21 21 21 21 20 20 21
15 15 16 16 17 18 19 19 18 17 17 17 18 19 19 18 18 19 19 19 19 19 21 22 22 22 22 21 21 21 21 21 21 21 21 21 21 22 22 21 20 22 23
16 16 17 18 18 19 20 20 21 19 18 18 19 19 19 19 18 18 18 18 18 19 21 22 22 22 22 22 22 22 22 21 20 21 21 22 22 21 21 20 21 21 21
17 17 18 18 19 20 20 21 21 22 22 21 19 19 19 18 17 17 18 19 20 20 21 22 22 22 21 22 22 22 22 21 21 22 21 21 22 22 22 21 22 24 23
18 18 18 19 19 20 21 21 21 21 22 22 21 20 19 18 18 18 18 21 21 21 21 21 21 22 21 21 21 21 22 22 21 21 22 23 24 22 24 22 23 24 23
17 18 19 19 19 20 21 22 22 23 22 22 22 22 20 20 21 21 21 21 21 22 22 22 21 21 21 22 23 22 22 21 21 21 23 25 25 23 24 24 24 24 22
17 17 18 20 20 20 21 21 21 21 21 22 21 20 20 21 22 21 21 21 21 21 21 21 21 22 22 22 21 20 21 22 22 22 22 24 25 25 23 23 23 22 22
17 17 18 19 20 21 21 21 21 22 22 22 21 21 20 21 21 21 21 21 21 20 20 21 21 20 20 20 20 21 22 23 23 23 26 25 23 23 23 23 24 24 22
17 18 18 19 20 20 20 21 21 22 22 22 21 22 22 22 22 21 22 21 21 21 20 21 21 21 20 21 21 21 22 23 24 24 25 25 24 24 25 24 24 24 25
16 17 19 19 20 20 20 21 21 21 21 21 21 21 22 22 22 22 22 22 22 22 22 22 22 22 22 21 22 24 25 24 23 25 26 26 25 23 26 25 25 26 26
15 17 18 19 19 20 20 21 21 21 22 22 22 22 22 22 22 22 22 22 23 23 24 24 24 24 25 26 27 27 27 28 29 28 25 25 27 27 27 26 26 24 25
16 16 17 18 19 19 20 20 21 21 21 22 22 22 22 23 23 23 23 23 23 23 23 23 24 24 25 27 27 28 28 29 29 29 30 27 27 26 25 26 26 26 24

GFSGL_con_lsi_129.txt.gz
Lid_Strength_Index
3 2 3 2 1 1 1 2 2 2 2 2 2 3 2 3 3 2 2 1 1 2 2 2 2 2 2 3 2 3 4 4 7 11 11 12 13 13 13 13 13 14 14
3 3 3 2 1 2 2 1 1 2 2 2 2 3 3 2 2 3 2 2 2 2 2 2 3 3 3 2 3 3 3 4 7 11 13 13 14 14 14 15 15 15 15
4 4 4 3 3 2 2 1 1 1 2 2 3 3 3 3 3 3 2 3 2 2 2 2 2 3 3 2 4 3 3 5 7 11 13 14 14 14 16 16 17 17 16
4 5 5 4 4 4 2 1 1 1 2 2 2 3 3 3 3 3 3 2 2 2 2 2 2 2 3 3 4 5 5 7 9 11 14 15 16 16 16 18 19 18 18
5 5 5 5 5 4 4 1 1 1 2 2 2 2 2 2 3 3 3 3 3 3 3 2 2 3 6 5 4 5 6 9 11 13 16 17 18 17 17 17 19 19 19
6 6 6 6 7 6 5 3 2 2 2 3 2 2 2 3 8 9 5 4 3 4 5 5 4 6 7 9 10 9 7 9 11 12 14 15 17 16 17 17 19 20 20
6 7 7 7 8 8 8 7 2 2 3 5 5 6 8 9 12 10 10 5 5 6 5 10 13 12 12 13 15 15 15 14 12 13 14 15 17 17 17 18 17 18 20
8 8 10 10 10 9 9 8 4 4 5 8 10 11 12 13 13 12 13 13 15 15 15 15 14 15 14 15 15 17 17 17 17 16 15 17 17 16 16 16 19 20 20
10 11 11 11 11 10 10 10 7 8 9 11 12 13 13 14 14 14 14 15 16 16 16 15 16 16 15 14 16 17 18 18 16 16 16 16 16 16 17 19 20 20 21
12 12 11 11 11 11 11 10 8 8 12 13 14 14 15 15 14 14 14 15 17 17 16 16 16 17 17 16 17 18 20 19 19 19 18 18 18 17 17 17 18 19 21
12 12 12 11 11 11 10 10 10 12 13 15 15 15 15 14 14 14 14 15 17 17 18 18 17 17 17 17 17 18 20 20 21 21 21 21 20 20 20 20 20 18 20
13 12 12 12 11 11 10 9 11 13 14 16 16 17 16 16 15 15 15 16 16 18 19 18 18 17 18 18 19 19 20 21 21 22 22 22 22 22 21 20 19 20 20
12 12 12 12 12 12 11 12 14 14 15 17 17 18 18 17 16 16 16 17 17 18 18 17 17 17 18 19 19 20 20 21 22 22 23 22 21 20 19 20 20 20 20
13 13 13 13 14 15 14 13 14 16 15 17 17 18 19 19 19 19 18 17 17 18 18 19 19 19 19 19 19 18 19 20 21 22 22 20 20 20 21 20 21 21 22
14 13 14 14 15 15 15 15 15 16 16 16 17 18 20 20 20 18 19 18 19 19 19 19 19 20 20 20 20 20 19 20 21 21 21 21 21 21 20 20 20 21 22
15 15 15 15 16 16 17 17 15 16 16 16 17 18 19 18 18 18 19 19 18 18 19 21 21 21 21 21 21 21 21 21 21 21 21 21 21 21 21 21 21 22 23
16 15 15 16 17 19 18 18 20 18 18 18 18 18 18 18 18 18 18 19 19 18 20 21 21 22 22 22 22 22 22 21 20 21 21 21 21 21 22 22 22 22 22
17 16 17 18 18 19 19 19 20 20 21 20 18 18 18 18 18 18 18 19 21 21 21 22 22 22 22 22 22 22 22 21 21 21 22 22 22 22 23 23 23 27 25
18 17 18 18 19 20 20 20 20 20 20 20 19 19 18 18 18 19 19 21 22 22 22 22 22 22 22 22 22 22 22 23 23 23 23 23 24 23 24 24 24 25 23
18 18 18 19 20 20 20 21 22 22 22 22 22 22 21 21 22 22 21 22 22 22 22 22 22 22 23 23 22 22 23 23 23 23 24 24 25 23 23 24 24 23 23
18 18 18 19 20 20 20 20 21 22 22 23 23 22 21 22 23 22 22 22 22 22 22 22 23 22 22 22 21 21 22 23 23 23 23 23 23 24 23 23 23 23 23
19 19 19 20 20 21 21 20 20 21 22 23 23 22 22 22 22 23 22 22 22 21 21 21 21 21 21 21 22 22 23 23 23 23 23 23 23 23 24 24 25 25 24
18 19 19 20 20 20 20 21 21 22 22 23 23 23 23 23 23 23 23 22 22 22 21 21 22 22 22 22 21 22 24 24 25 24 24 24 24 25 26 26 27 27 27
18 19 20 20 20 21 21 21 21 22 22 22 22 23 23 23 23 23 24 23 23 24 24 24 23 23 25 25 25 25 25 25 25 25 26 25 26 26 27 27 28 29 29
17 18 19 20 20 21 22 22 22 22 22 23 23 23 23 23 24 24 24 24 24 25 25 25 25 27 27 28 28 27 27 28 29 28 27 27 28 29 29 28 29 28 30
17 18 18 19 20 20 21 21 22 22 23 23 23 23 24 24 24 24 24 24 25 25 25 26 27 27 28 28 28 28 29 29 30 31 31 28 27 28 29 30 30 30 28

GFSGL_con_lsi_132.txt.gz
Lid_Strength_Index
3 3 2 2 2 2 1 1 1 1 1 2 2 2 2 2 2 2 2 2 2 2 2 1 2 1 2 3 3 3 4 5 7 11 12 11 12 12 13 13 13 13 13
5 4 4 4 3 3 3 2 1 1 1 2 2 3 3 3 3 3 3 3 2 2 2 2 2 1 2 2 3 4 4 4 7 12 13 13 14 14 15 16 15 14 14
5 5 5 5 5 5 5 4 2 1 1 1 2 3 3 3 3 3 3 2 3 2 2 2 2 2 2 3 3 3 3 5 7 12 13 14 15 16 17 16 16 16 15
6 6 6 6 6 6 6 5 3 2 1 1 2 3 3 4 3 3 2 2 2 2 2 2 2 2 2 2 3 3 3 6 8 10 13 15 15 16 16 18 18 17 17
7 7 7 7 7 8 7 7 6 5 1 1 2 3 3 3 4 3 3 3 3 3 3 2 2 3 5 4 3 4 5 7 9 12 14 16 17 18 18 17 18 19 19
8 7 7 8 8 9 9 8 7 6 4 1 2 3 3 4 8 9 5 3 3 4 4 4 4 6 6 8 8 9 7 8 10 11 13 15 16 16 16 17 19 20 20
9 10 9 10 10 10 10 9 9 7 7 3 2 2 4 5 10 10 9 4 4 4 5 7 9 9 8 11 10 10 12 11 11 10 13 13 16 15 16 17 17 17 19
11 12 11 11 11 10 10 10 10 9 8 4 5 6 8 12 12 11 12 11 13 14 14 14 13 15 13 12 15 14 15 14 13 12 11 13 14 14 14 15 16 20 19
13 13 13 12 11 11 10 10 11 10 9 7 8 10 12 14 14 14 12 14 15 16 16 15 15 15 13 12 15 16 17 17 15 15 15 15 14 14 16 17 19 20 22
14 14 13 12 11 11 11 11 10 10 9 12 13 12 14 15 14 14 13 14 16 16 16 16 15 15 15 15 14 16 17 17 17 17 17 17 16 16 16 16 17 19 21
14 14 13 12 11 11 11 11 11 9 11 13 14 15 15 14 14 14 14 15 16 17 17 17 15 15 15 16 15 16 18 19 19 19 19 20 19 19 19 17 17 18 20
14 14 13 12 12 12 13 12 11 11 13 15 15 15 15 16 14 15 14 15 16 17 18 17 16 15 15 17 18 18 19 19 19 20 20 21 21 22 21 20 20 20 20
14 14 13 13 12 13 14 14 13 12 13 14 15 17 17 17 16 15 16 16 17 18 17 17 16 16 17 18 18 19 19 20 21 21 22 22 21 21 21 21 21 21 20
15 15 14 14 14 14 14 15 14 14 14 14 15 16 17 18 18 17 18 18 17 18 17 18 19 19 18 19 19 20 20 20 21 22 22 22 21 21 22 21 22 21 22
16 16 16 15 14 14 15 15 15 14 14 14 14 15 18 19 19 17 18 18 19 20 20 19 20 19 20 20 20 20 20 20 22 21 22 22 22 21 21 20 20 21 22
17 16 16 16 16 16 17 16 15 14 14 14 15 17 18 18 17 16 17 18 19 19 20 21 21 20 20 21 21 21 20 20 20 20 20 20 20 21 21 21 21 21 23
17 17 17 17 17 17 19 18 19 17 15 14 14 16 16 17 17 17 17 17 18 19 21 22 22 21 21 21 21 21 22 21 20 21 21 21 21 22 22 22 22 22 23
17 18 19 19 18 18 18 18 18 19 19 18 16 17 17 17 17 18 18 19 21 21 22 23 23 22 21 21 21 22 22 21 21 21 22 22 22 22 23 23 24 24 24
18 18 18 18 18 18 18 19 19 19 19 18 18 18 18 18 18 19 19 22 22 23 22 23 22 22 22 22 22 22 22 22 22 22 22 23 23 23 23 23 24 24 24
18 18 18 19 19 19 19 20 20 21 21 21 21 22 21 21 23 23 22 22 23 23 22 22 22 22 22 22 22 23 23 23 23 23 23 23 23 23 23 24 24 24 24
18 19 19 19 19 20 20 20 21 21 22 22 22 22 22 23 23 23 23 22 23 23 23 22 22 22 22 22 22 23 23 23 23 23 23 23 23 23 23 23 24 24 24
18 19 19 20 20 20 20 20 21 22 23 23 23 23 22 22 23 23 23 23 22 22 22 22 22 22 22 22 23 23 23 23 23 23 23 23 22 23 23 24 24 24 24
18 19 19 20 20 20 21 21 22 22 22 23 24 24 24 24 24 24 24 23 23 23 22 23 23 23 23 23 23 23 23 24 24 22 23 23 23 24 24 25 25 25 26
18 19 19 20 20 21 21 22 22 22 23 23 23 24 25 25 25 25 25 25 25 25 25 25 25 25 25 25 25 25 25 25 24 24 24 24 25 25 25 26 26 30 31
19 19 19 20 21 21 21 22 23 23 23 23 24 24 24 24 24 25 25 25 25 25 26 26 26 27 27 27 27 27 27 27 26 25 25 25 26 27 27 27 30 29 31
18 18 19 20 20 20 21 22 22 23 23 24 24 24 24 24 24 25 25 25 26 26 27 27 28 28 28 28 28 28 29 28 28 27 25 25 26 28 28 29 29 29 29

GFSGL_con_lsi_135.txt.gz
Lid_Strength_Index
5 4 5 4 3 2 3 4 3 1 1 1 1 2 1 1 1 2 2 2 2 2 1 1 2 1 1 1 2 3 3 4 6 12 11 11 12 12 12 11 11 11 11
6 5 5 5 4 4 5 5 4 3 2 1 1 2 1 1 2 2 2 2 2 2 2 2 2 2 2 1 2 3 3 3 7 12 12 13 13 13 14 14 14 13 13
7 7 7 6 6 6 6 6 5 5 3 2 1 2 2 2 2 2 2 2 2 2 2 2 2 2 2 2 2 2 3 4 7 12 13 13 15 15 16 16 16 15 15
8 8 8 8 8 8 7 8 7 6 5 4 1 1 2 2 3 2 2 2 2 2 3 2 2 2 2 2 2 3 4 5 8 10 13 14 15 16 16 18 18 16 17
9 9 9 9 9 9 9 9 9 8 7 5 4 1 1 2 3 4 3 3 3 3 3 2 2 3 6 4 2 2 4 6 9 11 14 15 16 17 17 17 18 18 18
10 11 10 10 10 9 9 9 9 9 8 7 6 5 2 2 8 9 6 4 3 3 3 3 3 6 7 8 8 8 5 7 9 12 13 15 16 16 16 17 19 19 20
12 12 12 11 11 11 10 9 8 9 9 9 8 6 2 2 9 10 10 4 4 4 4 5 7 7 7 7 10 10 10 10 9 9 12 13 15 15 16 17 17 17 19
14 14 13 13 12 11 11 10 9 9 9 9 9 6 4 4 10 10 10 6 7 9 10 11 8 12 13 11 13 13 13 9 10 9 10 11 12 13 14 14 15 18 18
14 15 14 14 13 12 12 11 10 10 10 10 9 9 8 8 12 11 11 11 14 15 16 16 14 15 13 12 13 14 16 15 14 12 11 11 12 13 14 16 18 18 21
15 15 14 13 12 13 12 12 11 11 10 9 11 11 12 11 13 12 10 13 15 16 16 15 14 15 14 13 13 14 15 16 15 15 15 14 14 15 15 14 15 16 21
15 14 14 13 13 12 13 12 13 12 10 11 13 13 13 13 13 13 12 12 14 16 16 16 16 15 14 13 14 14 15 16 17 17 17 17 17 17 17 16 16 16 19
15 15 14 14 13 13 14 14 13 13 11 12 14 14 14 15 13 13 14 14 14 16 17 16 16 15 15 15 16 16 16 17 17 18 19 20 20 20 20 20 20 20 19
15 15 15 14 14 14 15 15 15 14 12 12 14 14 15 15 15 15 15 16 16 17 17 16 16 16 16 16 16 16 17 18 18 20 21 22 22 21 21 21 20 20 20
15 16 16 16 15 15 16 15 15 15 14 13 13 14 15 16 17 17 17 17 16 17 17 18 19 19 18 19 19 18 18 18 19 21 22 22 22 22 22 21 22 22 22
15 15 16 16 17 17 16 16 15 15 14 15 13 14 15 16 17 16 17 17 18 18 19 19 20 20 20 20 20 19 19 20 21 21 22 22 22 22 22 22 22 22 23
16 16 17 18 18 18 19 19 15 14 13 14 13 14 15 15 14 15 16 17 18 18 19 21 21 21 21 21 21 20 20 21 20 21 21 22 22 22 22 21 21 22 23
17 17 18 19 19 19 19 19 19 17 14 14 14 14 14 14 14 15 17 18 17 18 20 21 22 22 22 22 22 21 21 20 19 20 20 20 21 21 21 21 22 22 23
18 18 18 18 18 18 19 19 19 19 18 17 16 15 15 15 15 15 16 19 22 21 21 21 22 22 22 22 22 22 21 20 21 21 21 21 22 22 22 23 23 24 24
18 18 18 18 18 18 18 19 20 20 20 19 19 19 19 17 17 17 18 21 22 23 22 22 22 22 22 22 22 22 22 22 21 22 22 22 22 23 23 23 24 24 24
18 18 18 19 19 19 19 19 20 20 21 21 20 20 20 20 21 21 22 22 22 22 22 23 22 22 22 22 22 22 22 22 22 22 23 23 23 23 23 24 24 24 24
18 18 18 19 20 20 20 21 21 21 22 22 21 20 20 21 22 22 22 23 23 23 23 23 22 22 22 22 22 22 22 23 23 23 23 23 23 24 23 23 24 24 24
18 18 18 19 20 20 21 21 21 22 22 23 22 22 21 22 22 22 23 23 23 23 22 23 23 23 23 22 23 23 23 23 23 23 24 23 23 24 23 24 24 24 24
19 19 19 19 20 20 21 22 22 22 23 23 24 24 24 24 25 25 26 25 25 25 24 24 24 25 24 24 23 23 24 24 23 23 24 24 24 24 24 24 24 25 25
18 19 19 19 20 21 22 22 22 23 23 23 24 25 25 25 25 26 26 26 26 26 26 26 26 26 26 26 25 25 25 24 24 24 23 24 24 24 25 25 26 27 27
19 19 20 20 20 21 22 22 23 23 23 24 24 24 25 25 26 26 27 27 27 28 28 28 27 27 28 28 28 27 25 25 25 24 24 24 25 25 26 26 27 27 28
18 19 19 20 20 21 21 22 22 23 23 24 24 24 25 25 25 25 26 26 27 28 28 28 28 28 27 27 27 27 27 26 26 25 25 25 26 26 27 27 27 28 29